Home   Weather   Neu-Ulm   Past weeks

Flag for Germany Past Weather in Neu-Ulm, Bavaria, Germany — Yesterday and Last 2 Weeks

Now
37 °F

Low clouds.


Feels Like: 37 °F
Forecast: 36 / 43 °F
Wind: 1 mph from North

Location: Laupheim Airport

Current Time: Apr 26, 2017 at 7:45:40 pm

Latest Report: Apr 26, 2017 at 6:20 pm


Visibility: 4 mi

Pressure: 29.86 "Hg

Humidity: 87%

Dew Point: 34 °F

Location of Neu-UlmLocation

Past Weather in Neu-Ulm — Graph

°F

Neu-Ulm Temperature Yesterday

Maximum temperature yesterday: 55 °F (at 1:20 pm)
Minimum temperature yesterday: 37 °F (at 11:20 pm)
Average temperature yesterday: 49 °F

High & Low Weather Summary for the Past Weeks

 TemperatureHumidityPressure
High64 °F (Apr 12, 4:20 pm)100% (Apr 18, 2:58 am)30.51 "Hg (Apr 18, 2:58 am)
Low27 °F (Apr 20, 4:20 am)32% (Apr 12, 3:20 pm)29.74 "Hg (Apr 25, 4:20 am)
Average42 °F70%30.11 "Hg
* Reported Apr 11 6:20 pm — Apr 26 6:20 pm, Neu-Ulm, Weather by CustomWeather, © 2017

Note: Actual official high and low records may vary slightly from our data, if they occured in-between our weather recording intervals... More about our weather records

Advertising

Neu-Ulm Weather History for the Previous 24 Hours

Scroll right to see more
 ConditionsComfort  
Time TempWeatherWind HumidityBarometerVisibility
6:20 pm
Wed, Apr 26
37 °FLow clouds.1 mph87%29.86 "Hg4 mi
5:20 pm37 °FLight rain. Low clouds.2 mph81%29.86 "Hg4 mi
4:20 pm36 °FRain. Low clouds.6 mph93%29.86 "Hg4 mi
3:20 pm36 °FRain. Low clouds.5 mph87%29.83 "Hg4 mi
2:20 pm36 °FRain. Fog.3 mph87%29.83 "Hg3 mi
1:51 pm36 °FLight rain. Fog.6 mph87%29.83 "Hg3 mi
1:36 pm34 °FLight rain. Fog.6 mph93%29.83 "Hg2 mi
1:01 pm34 °FRain. Low clouds.5 mph93%29.83 "Hg1 mi
12:20 pm34 °FRain. Low clouds.5 mph93%29.83 "Hg1 mi
11:20 am34 °FHeavy snow. Low clouds.3 mph93%29.80 "Hg1 mi
10:20 am32 °FSnow. Ice fog.2 mph100%29.77 "Hg1 mi
9:20 am32 °FHeavy snow. Low clouds.2 mph100%29.77 "Hg1 mi
8:20 am32 °FHeavy snow. Low clouds.No wind100%29.77 "Hg1 mi
7:20 am32 °FSnow. Low clouds.2 mph100%29.77 "Hg1 mi
6:38 am32 °FSnow. Low clouds.2 mph100%29.74 "Hg1 mi
5:45 am32 °FHeavy snow. Low clouds.3 mph100%29.74 "Hg1 mi
5:30 am32 °FHeavy snow. Low clouds.2 mph100%29.74 "Hg1 mi
4:36 am32 °FSnow. Low clouds.3 mph100%29.74 "Hg1 mi
3:41 am32 °FHeavy snow. Low clouds.1 mph100%29.77 "Hg1 mi
3:20 am32 °FSnow. Low clouds.1 mph100%29.77 "Hg1 mi
2:20 am32 °FSnow. Low clouds.2 mph100%29.77 "Hg1 mi
1:33 am32 °FSnow. Ice fog.3 mph100%29.77 "Hg1 mi
12:41 am36 °FRain. Low clouds.8 mph93%29.77 "Hg4 mi
12:20 am36 °FRain. Mostly cloudy.9 mph93%29.77 "Hg6 mi
11:20 pm
Tue, Apr 25
37 °FRain. Low clouds.7 mph93%29.77 "HgN/A
10:47 pm39 °FRain. Mostly cloudy.5 mph87%29.77 "HgN/A
10:20 pm39 °FRain. Mostly cloudy.7 mph93%29.77 "HgN/A
9:20 pm41 °FRain. Mostly cloudy.7 mph93%29.77 "Hg4 mi
8:20 pm43 °FRain. More clouds than sun.5 mph93%29.77 "Hg4 mi
7:20 pm45 °FRain. More clouds than sun.6 mph87%29.77 "Hg4 mi
Weather by CustomWeather, © 2017

See weather overviewHow to use our weather pages